[[{"header":{"parameterUnit":"m.s-1","parameterCategory":1,"la1":30.2991,"la2":30.254,"lo1":-89.0895,"lo2":-89.0444,"dy":0.0017,"dx":0.0017,"nx":28,"ny":28,"refTime":"2024-12-23T09:00:00:Z","depth":0,"parameterNumber":2,"parameterNumberName":"U-component_of_WINDS"},"data":[0,0,0,0,0,0,0,0,0,0,0,0,0,0,0,0,0,0,0,0,0,0,0,0,0,0,0,0,0,0,0,0,0,0,0,0,0,0,0,0,0,0,0,0,0,0,0,0,0,0,0,0,0,0,0,0,0,0,-2.8625,-2.8625,0,-2.8677,-2.8678,-2.8678,-2.8597,-2.8594,-2.8591,-2.8589,-2.8645,-2.8649,-2.8653,0,0,0,0,0,0,0,0,0,0,0,0,0,-2.8457,-2.846,-2.8625,-2.8625,-2.8626,-2.8677,-2.8678,-2.8678,-2.8597,-2.8594,-2.8591,-2.8587,-2.8644,-2.8649,-2.8653,0,0,0,0,0,0,0,0,0,0,0,0,0,-2.8522,-2.8462,-2.8624,-2.8592,-2.8589,-2.8677,-2.8678,-2.8679,-2.8598,-2.8594,-2.859,-2.8586,-2.8642,-2.8648,-2.8654,-2.8777,0,0,-2.8673,-2.8676,0,0,0,0,0,0,0,0,-2.8518,-2.8528,-2.8596,-2.8594,-2.8591,-2.8626,-2.8639,-2.8712,-2.8599,-2.8595,-2.8589,-2.8584,-2.8642,-2.8648,-2.8667,-2.878,-2.8782,-2.8674,-2.8677,-2.868,-2.8682,0,0,0,0,0,0,0,-2.8514,-2.8525,-2.8645,-2.8597,-2.8594,-2.8575,-2.858,-2.8653,-2.8642,-2.8595,-2.8589,-2.8596,-2.864,-2.8662,-2.8668,-2.8783,-2.8673,-2.8679,-2.8683,-2.8685,-2.9001,-2.9006,0,0,0,0,0,0,-2.8513,-2.8522,-2.8644,-2.8647,-2.8543,-2.8582,-2.8587,-2.8619,-2.8641,-2.864,-2.86,-2.8592,-2.8653,-2.8661,-2.867,-2.8817,-2.868,-2.8686,-2.8689,-2.8997,-2.9002,-2.9007,0,0,0,0,0,0,-2.851,-2.8525,-2.8642,-2.8583,-2.8596,-2.8589,-2.8626,-2.8623,-2.8644,-2.8644,-2.8642,-2.8624,-2.865,-2.8661,-2.8751,-2.8818,-2.8689,-2.8694,-2.8991,-2.8998,-2.9005,-2.9112,0,0,0,0,0,0,-2.8505,-2.8524,-2.857,-2.8585,-2.86,-2.8722,-2.863,-2.8627,-2.8654,-2.8645,-2.8666,-2.8666,-2.8648,-2.8743,-2.8758,-2.8824,-2.8699,-2.8985,-2.8994,-2.9003,-2.9103,-2.9122,-2.9139,0,0,0,0,0,-2.8499,-2.8598,-2.8573,-2.8588,-2.8657,-2.8726,-2.8735,-2.8711,-2.866,-2.8707,-2.8708,-2.8665,-2.8808,-2.8753,-2.8769,-2.8838,-2.8981,-2.8992,-2.9002,-2.9095,-2.9118,-2.9138,0,0,0,0,0,0,-2.8592,-2.8599,-2.8571,-2.8677,-2.8702,-2.8712,-2.877,-2.8737,-2.8776,-2.8766,-2.8736,-2.8741,-2.8839,-2.8847,-2.8785,-2.8959,-2.8886,-2.89,-2.8951,-2.8973,-2.8991,-2.8988,-2.8704,0,0,0,0,0,-2.8625,-2.8679,-2.8683,-2.8776,-2.879,-2.8778,-2.8807,-2.8787,-2.8811,-2.8821,-2.8828,-2.8854,-2.8905,-2.8939,-2.8986,-2.9103,-2.9107,-2.9159,-2.9176,-2.9191,-2.9205,-2.9269,-2.9293,-2.9042,-2.9042,-2.9042,0,0,-2.8693,-2.8704,-2.874,-2.8795,-2.8811,-2.887,-2.8787,-2.8852,-2.8895,-2.8831,-2.8917,-2.8924,-2.895,-2.9055,-2.9102,-2.9065,-2.9275,-2.9205,-2.9216,-2.9222,-2.9283,-2.9307,-2.9328,-2.9049,-2.9048,-2.9047,0,0,-2.8848,-2.8861,-2.8941,-2.8959,-2.8985,-2.8976,-2.8996,-2.9011,-2.9013,-2.9099,-2.9052,-2.9103,-2.9191,-2.9213,-2.9235,-2.9399,-2.9362,-2.9415,-2.9509,-2.9573,-2.9593,-2.961,-2.9671,-2.9693,-2.9428,-2.9428,-2.9428,0,-2.8931,-2.9016,-2.8987,-2.9055,-2.9082,-2.9025,-2.9107,-2.9126,-2.9166,-2.9186,-2.9144,-2.9254,-2.9268,-2.9378,-2.9418,-2.9437,-2.946,-2.9413,-2.9592,-2.9609,-2.9625,-2.9683,-2.9706,-2.9434,-2.9434,-2.9433,-2.9432,0,-2.9117,-2.9177,-2.9238,-2.9278,-2.9311,-2.9386,-2.937,-2.9407,-2.9384,-2.938,-2.9469,-2.9484,-2.9533,-2.9557,-2.9535,-2.9665,-2.9642,-2.9596,-2.9523,-2.9656,-2.971,-2.9732,-2.9444,-2.9441,-2.9439,-2.9438,0,0,-2.9333,-2.9356,-2.9379,-2.9398,-2.9422,-2.9468,-2.9541,-2.9588,-2.9622,-2.9651,-2.9713,-2.9788,-2.9747,-2.9772,-2.9752,-2.9807,-2.9939,-2.9755,-2.9755,-2.9791,-3.0086,-3.0122,-3.0148,-2.9914,-2.9918,-2.9921,-3.0085,0,-2.949,-2.9615,-2.9591,-2.9714,-2.977,-2.9717,-2.9781,-2.9803,-2.9802,-2.985,-2.9848,-2.9904,-2.9843,-2.9859,-2.9911,-2.9912,-2.9999,-2.99,-2.9973,-2.9976,-2.9971,-3.0176,-3.0214,-3.0368,-3.0105,-3.0109,-3.0111,0,-2.9689,-2.9726,-2.9855,-2.9871,-2.9894,-2.9951,-2.9994,-3.004,-3.0065,-3.006,-3.0089,-3.0059,-3.0132,-3.0056,-3.0158,-3.0092,-3.012,-3.0125,-3.0131,-3.0139,-3.0054,-3.0192,-3.0416,-3.0441,-3.0144,-3.0141,-3.0139,0,-2.9838,-2.9919,-3.0007,-3.0024,-3.0044,-3.0086,-3.0097,-3.0117,-3.0148,-3.0185,-3.0205,-3.0251,-3.0277,-3.0313,-3.0297,-3.0242,-3.0404,-3.0325,-3.0404,-3.0405,-3.0442,-3.0441,-3.0677,-3.0456,-3.0456,-3.0455,-3.0455,0,-3.0016,-3.0098,-3.0074,-3.0129,-3.0219,-3.019,-3.0281,-3.0285,-3.0304,-3.0359,-3.0315,-3.0369,-3.0342,-3.0394,-3.0381,-3.0469,-3.048,-3.048,-3.0476,-3.0486,-3.0486,-3.0506,-3.0496,-3.0462,-3.046,-3.0459,-3.0458,0,-3.0199,-3.0185,-3.0278,-3.029,-3.0295,-3.0361,-3.0372,-3.0423,-3.0418,-3.0489,-3.0504,-3.0497,-3.0555,-3.0542,-3.0605,-3.0597,-3.0709,-3.069,-3.0701,-3.0698,-3.0778,-3.0772,-3.1038,-3.1072,-3.0827,-3.0829,-3.0831,0,-3.0315,-3.0376,-3.0395,-3.0428,-3.0442,-3.0497,-3.0528,-3.0503,-3.0537,-3.057,-3.0619,-3.0673,-3.0715,-3.0812,-3.0813,-3.0862,-3.0846,-3.0935,-3.0853,-3.0861,-3.0851,-3.0848,-3.0856,-3.0953,-3.0956,-3.0958,-3.096,0,-3.0524,-3.0514,-3.056,-3.0605,-3.0643,-3.0677,-3.0707,-3.0737,-3.0714,-3.0756,-3.0815,-3.0848,-3.0913,-3.0968,-3.1014,-3.1026,-3.0991,-3.0985,-3.1007,-3.1018,-3.1023,-3.1024,-3.0749,-3.098,-3.0978,-3.0976,-3.0975,-3.0975,-3.0678,-3.0731,-3.0753,-3.0806,-3.0826,-3.0855,-3.0904,-3.0905,-3.0954,-3.1005,-3.0987,-3.1055,-3.1079,-3.1137,-3.1154,-3.1208,-3.1174,-3.1205,-3.1213,-3.1222,-3.1233,-3.1012,-3.1216,-3.1215,-3.1215,-3.1214,-3.1214,0,-3.0887,-3.0898,-3.0947,-3.0991,-3.1033,-3.0994,-3.1025,-3.1064,-3.1124,-3.1149,-3.1192,-3.1261,-3.1314,-3.132,-3.1371,-3.1413,-3.1398,-3.1427,-3.1426,-3.1429,-3.1259,-3.1236,-3.1439,-3.1439,-3.1439,-3.1439,-3.1439,-3.1439,-3.1001,-3.1089,-3.1082,-3.118,-3.1191,-3.1257,-3.1279,-3.1306,-3.1326,-3.1405,-3.1449,-3.1451,-3.1469,-3.1521,-3.1569,-3.1569,-3.1592,-3.1628,-3.1622,-3.1463,-3.1441,-3.142,-3.1399,-3.1632,-3.1632,-3.1789,-3.179,-3.1792]},{"header":{"parameterUnit":"m.s-1","parameterCategory":1,"la1":30.2991,"la2":30.254,"lo1":-89.0895,"lo2":-89.0444,"dy":0.0017,"dx":0.0017,"nx":28,"ny":28,"refTime":"2024-12-23T09:00:00:Z","depth":0,"parameterNumber":3,"parameterNumberName":"V-component_of_WINDS"},"data":[0,0,0,0,0,0,0,0,0,0,0,0,0,0,0,0,0,0,0,0,0,0,0,0,0,0,0,0,0,0,0,0,0,0,0,0,0,0,0,0,0,0,0,0,0,0,0,0,0,0,0,0,0,0,0,0,0,0,-1.9771,-1.9771,0,-1.9767,-1.9767,-1.9767,-1.9718,-1.9717,-1.9715,-1.9714,-1.971,-1.9711,-1.9712,0,0,0,0,0,0,0,0,0,0,0,0,0,-1.9738,-1.9738,-1.9771,-1.9771,-1.9771,-1.9767,-1.9767,-1.9767,-1.9718,-1.9716,-1.9715,-1.9714,-1.971,-1.9711,-1.9712,0,0,0,0,0,0,0,0,0,0,0,0,0,-1.9745,-1.9739,-1.9771,-1.9746,-1.9744,-1.9767,-1.9767,-1.9766,-1.9718,-1.9716,-1.9715,-1.9713,-1.971,-1.9711,-1.9713,-1.9759,0,0,-1.9717,-1.9718,0,0,0,0,0,0,0,0,-1.9744,-1.9746,-1.975,-1.9748,-1.9746,-1.9741,-1.9753,-1.9764,-1.9719,-1.9728,-1.9714,-1.9712,-1.9722,-1.9722,-1.9726,-1.9759,-1.9759,-1.9717,-1.9718,-1.9719,-1.972,0,0,0,0,0,0,0,-1.9744,-1.9746,-1.9769,-1.975,-1.9747,-1.9735,-1.9734,-1.9755,-1.9735,-1.9727,-1.9724,-1.9724,-1.972,-1.9724,-1.9725,-1.9759,-1.9717,-1.9719,-1.972,-1.972,-1.9828,-1.983,0,0,0,0,0,0,-1.9747,-1.9746,-1.977,-1.9769,-1.974,-1.9737,-1.9736,-1.9744,-1.9735,-1.9732,-1.9725,-1.9721,-1.9722,-1.9723,-1.9725,-1.9778,-1.9719,-1.9721,-1.9721,-1.9826,-1.9829,-1.9831,0,0,0,0,0,0,-1.9746,-1.9749,-1.977,-1.9757,-1.9758,-1.974,-1.9749,-1.9745,-1.9749,-1.9734,-1.973,-1.9733,-1.9721,-1.9723,-1.9751,-1.9777,-1.9721,-1.9723,-1.9824,-1.9827,-1.983,-1.9885,0,0,0,0,0,0,-1.9746,-1.9749,-1.9767,-1.9757,-1.9759,-1.9796,-1.9751,-1.9746,-1.9752,-1.9747,-1.974,-1.9737,-1.972,-1.9748,-1.9752,-1.9778,-1.9724,-1.9822,-1.9825,-1.9829,-1.9881,-1.989,-1.9897,0,0,0,0,0,-1.9744,-1.9783,-1.9768,-1.9772,-1.9781,-1.9798,-1.9798,-1.9778,-1.9754,-1.9771,-1.9761,-1.9737,-1.9774,-1.9752,-1.9755,-1.9783,-1.982,-1.9824,-1.9829,-1.9877,-1.9888,-1.9897,0,0,0,0,0,0,-1.9798,-1.9782,-1.9765,-1.9802,-1.9801,-1.9789,-1.9811,-1.979,-1.9797,-1.9792,-1.9766,-1.9765,-1.9796,-1.9792,-1.9768,-1.9826,-1.9792,-1.9798,-1.9828,-1.9838,-1.9846,-1.9847,-1.9725,0,0,0,0,0,-1.9814,-1.9828,-1.9814,-1.9848,-1.9848,-1.983,-1.9836,-1.982,-1.9819,-1.9818,-1.981,-1.981,-1.9821,-1.9829,-1.9839,-1.988,-1.9877,-1.99,-1.9908,-1.9915,-1.992,-1.994,-1.995,-1.9845,-1.9845,-1.9845,0,0,-1.9847,-1.984,-1.9851,-1.9858,-1.9856,-1.9871,-1.983,-1.9849,-1.986,-1.9821,-1.9847,-1.9841,-1.9839,-1.9873,-1.9888,-1.9871,-1.9948,-1.992,-1.9926,-1.9927,-1.9946,-1.9956,-1.9965,-1.9848,-1.9848,-1.9847,0,0,-1.9916,-1.9912,-1.9939,-1.9937,-1.9934,-1.9921,-1.9928,-1.9919,-1.9913,-1.9938,-1.9909,-1.9922,-1.9943,-1.9942,-1.9944,-2.0011,-1.9989,-2.0015,-2.0057,-2.0078,-2.0086,-2.0093,-2.0117,-2.0125,-2.002,-2.002,-2.002,0,-1.9958,-1.998,-1.9956,-1.9976,-1.998,-1.9945,-1.9972,-1.9972,-1.9972,-1.9975,-1.9956,-1.9979,-1.9976,-2.0009,-2.0025,-2.0028,-2.0035,-2.0016,-2.0087,-2.0094,-2.01,-2.0122,-2.0131,-2.0023,-2.0023,-2.0022,-2.0022,0,-2.0031,-2.0047,-2.007,-2.007,-2.0076,-2.01,-2.008,-2.0089,-2.0071,-2.0061,-2.0086,-2.008,-2.0087,-2.0094,-2.0078,-2.0125,-2.0114,-2.0091,-2.0057,-2.0114,-2.0134,-2.0142,-2.0028,-2.0027,-2.0026,-2.0025,0,0,-2.0135,-2.012,-2.0129,-2.0128,-2.0121,-2.0133,-2.0155,-2.0161,-2.017,-2.0171,-2.0188,-2.0205,-2.0183,-2.0186,-2.0169,-2.0187,-2.024,-2.0161,-2.0161,-2.0176,-2.0291,-2.0308,-2.0319,-2.0225,-2.0226,-2.0227,-2.0291,0,-2.0201,-2.0237,-2.0215,-2.0255,-2.0269,-2.0235,-2.0253,-2.0251,-2.0241,-2.0252,-2.0241,-2.0253,-2.0223,-2.0225,-2.0241,-2.023,-2.0262,-2.0225,-2.0241,-2.0242,-2.0243,-2.0329,-2.0348,-2.0409,-2.0299,-2.03,-2.0301,0,-2.0283,-2.0287,-2.0327,-2.0316,-2.0321,-2.0339,-2.0342,-2.0353,-2.0349,-2.0341,-2.0343,-2.0321,-2.0342,-2.0307,-2.0335,-2.031,-2.0315,-2.031,-2.0312,-2.0313,-2.0275,-2.0333,-2.0428,-2.0437,-2.0313,-2.0312,-2.0311,0,-2.0355,-2.0369,-2.0395,-2.0396,-2.0384,-2.0396,-2.0392,-2.0387,-2.0391,-2.0395,-2.0397,-2.0403,-2.0406,-2.0411,-2.0392,-2.0369,-2.0422,-2.0386,-2.0415,-2.0416,-2.0429,-2.0428,-2.0526,-2.0432,-2.0431,-2.0431,-2.0431,0,-2.0431,-2.0457,-2.0427,-2.0443,-2.0471,-2.0445,-2.0474,-2.0466,-2.0461,-2.0475,-2.0446,-2.0459,-2.0432,-2.0443,-2.0428,-2.0453,-2.0455,-2.0448,-2.0444,-2.0451,-2.0452,-2.0455,-2.045,-2.0434,-2.0433,-2.0433,-2.0432,0,-2.0516,-2.0497,-2.0522,-2.0508,-2.0505,-2.0527,-2.0514,-2.0529,-2.0516,-2.0534,-2.0536,-2.0517,-2.0528,-2.0509,-2.0518,-2.0507,-2.0542,-2.0531,-2.0543,-2.054,-2.0571,-2.0569,-2.0674,-2.0686,-2.0584,-2.0585,-2.0586,0,-2.0566,-2.0585,-2.0572,-2.0579,-2.0576,-2.0588,-2.0592,-2.0567,-2.0573,-2.0569,-2.0584,-2.0592,-2.0598,-2.0617,-2.0604,-2.061,-2.06,-2.0636,-2.0601,-2.0607,-2.06,-2.06,-2.0601,-2.0644,-2.0645,-2.0646,-2.0647,0,-2.0657,-2.0646,-2.0653,-2.0657,-2.0663,-2.0665,-2.0665,-2.0672,-2.0646,-2.0654,-2.0664,-2.0668,-2.0677,-2.0685,-2.0688,-2.0684,-2.0661,-2.0658,-2.0665,-2.0673,-2.0679,-2.0676,-2.0564,-2.0656,-2.0655,-2.0654,-2.0654,-2.0653,-2.0726,-2.0741,-2.0734,-2.0743,-2.074,-2.074,-2.0752,-2.074,-2.0749,-2.0753,-2.0738,-2.0752,-2.0746,-2.0748,-2.0746,-2.0756,-2.074,-2.0751,-2.0753,-2.0757,-2.0761,-2.0677,-2.0757,-2.0757,-2.0756,-2.0756,-2.0756,0,-2.0815,-2.0809,-2.0817,-2.0817,-2.0824,-2.08,-2.0799,-2.0806,-2.0818,-2.0815,-2.0821,-2.0832,-2.084,-2.0827,-2.0833,-2.0844,-2.0834,-2.0846,-2.0846,-2.0845,-2.0776,-2.0769,-2.0855,-2.0855,-2.0855,-2.0854,-2.0854,-2.0854,-2.0863,-2.0887,-2.0875,-2.0897,-2.089,-2.0903,-2.0904,-2.0903,-2.09,-2.0915,-2.0921,-2.0912,-2.0904,-2.0909,-2.0915,-2.0911,-2.0915,-2.0931,-2.0924,-2.0859,-2.085,-2.0841,-2.0834,-2.0932,-2.0932,-2.0992,-2.0993,-2.0993]}]]